SCP
0 0 0 0 0 0 0 0 0 0 1 0 0 0 0 0 0 0 0 0 0 1 2 1 1 2 1 1 0 3 3 2 2 1 1 1 0 0 0 0 0 0 0
0 0 0 0 0 0 0 0 0 1 0 1 1 0 0 0 0 0 0 1 0 1 1 2 2 2 2 3 2 2 2 2 3 2 1 0 0 0 0 0 0 0 0
0 0 0 0 0 0 0 1 1 1 1 1 1 1 1 0 0 1 1 1 1 1 1 1 3 3 4 2 2 2 2 2 2 1 1 0 0 0 0 0 0 0 0
1 0 1 0 0 0 0 0 1 1 1 2 2 2 2 1 1 1 1 1 2 2 2 3 3 3 3 3 3 2 2 1 1 1 1 0 0 0 0 0 0 0 0
1 1 1 2 1 2 2 2 2 2 2 2 2 2 2 2 3 3 4 5 4 5 4 5 4 3 3 2 2 1 1 1 1 1 1 0 0 0 0 0 0 0 0
1 2 3 3 3 3 3 3 3 4 5 5 5 4 3 4 4 7 6 7 4 5 5 5 4 2 2 1 1 2 2 1 1 0 0 0 0 0 0 0 0 0 0
1 1 1 1 3 3 3 2 2 2 3 3 2 2 3 2 2 4 4 6 5 4 4 4 3 2 2 2 1 1 0 0 0 0 0 0 0 0 0 0 0 0 0
1 1 1 1 1 1 1 1 1 1 2 1 2 3 3 2 3 4 4 3 3 2 2 2 1 0 0 0 0 0 0 0 0 0 0 0 0 0 0 0 0 0 0
1 1 0 0 0 0 0 0 1 1 1 1 1 1 2 3 3 3 3 3 2 1 1 0 0 0 0 0 0 0 0 0 0 0 0 0 0 0 0 0 0 0 0
0 0 0 0 0 0 0 0 0 0 1 1 1 1 1 2 2 2 1 1 1 0 0 0 0 0 0 0 0 0 0 0 0 0 0 0 0 0 0 0 0 0 0
0 0 0 0 0 0 0 0 0 1 1 1 1 1 0 0 0 0 0 0 0 0 0 0 0 0 0 0 0 0 0 0 0 0 0 0 0 0 0 0 0 0 0
0 0 0 0 0 0 0 0 0 0 0 1 0 0 0 0 0 0 0 0 0 0 0 0 0 0 0 0 0 0 0 0 0 0 0 0 0 0 0 0 0 0 0
0 0 0 0 0 0 0 0 0 0 0 0 0 0 0 0 0 0 0 0 0 0 0 0 0 0 0 0 0 0 0 0 0 0 0 0 0 0 0 0 0 0 0
1 1 0 0 0 0 0 0 0 0 0 0 0 0 0 0 0 0 0 0 0 0 0 0 0 0 0 0 0 0 0 0 -0 0 0 0 0 0 0 0 0 0 0
0 0 0 1 0 0 0 0 0 0 0 0 0 0 0 0 0 0 0 0 0 0 0 0 0 0 0 0 0 0 0 0 0 0 -0 0 0 0 0 -0 0 0 0
0 0 0 0 0 0 0 0 0 0 0 0 0 0 0 0 0 0 0 0 0 0 0 0 0 0 0 0 0 0 0 0 0 0 0 -0 0 0 0 0 0 0 0
0 0 0 0 0 0 0 0 0 0 0 0 0 0 0 0 0 0 0 0 0 0 0 0 0 0 0 0 0 0 0 0 0 0 0 0 0 0 0 0 0 -0 -0
0 0 0 0 0 0 0 0 0 0 0 0 0 0 0 0 0 0 0 0 0 0 0 0 0 0 0 0 0 -0 0 -0 -0 -0 -0 -0 0 0 0 0 0 0 -0
0 0 0 0 0 0 0 0 0 0 0 0 0 0 0 0 0 -0 0 0 0 0 0 0 0 0 0 0 0 -0 0 0 0 -0 -0 -0 -0 -0 0 0 0 0 0
0 0 0 0 0 0 0 0 0 0 0 0 0 0 0 0 0 0 0 0 0 0 0 0 0 0 0 0 0 0 0 0 0 0 -0 -0 0 0 -0 0 0 0 0
0 0 0 0 0 0 0 0 0 0 0 0 0 0 0 0 0 0 0 0 0 0 0 0 0 -0 0 0 0 0 0 0 0 0 0 0 0 0 -0 -0 0 0 0
0 0 0 0 0 0 0 0 0 0 0 0 0 0 0 0 0 0 0 0 0 -0 -0 -0 -0 -0 -0 -0 -0 -0 0 0 0 0 0 0 0 0 0 -0 0 0 0
0 0 0 0 0 0 0 0 0 0 0 0 0 0 0 0 0 0 0 -0 0 0 0 -0 -0 -0 0 0 0 0 0 0 0 -0 0 0 0 0 0 -0 -0 0 0
0 0 0 0 0 0 0 0 0 0 0 0 0 0 0 0 0 0 0 0 0 -0 -0 -0 0 0 0 0 0 0 0 0 0 -0 0 0 0 0 -0 0 0 0 0
0 0 0 0 0 0 0 0 0 0 0 0 0 0 0 0 0 0 0 0 -0 0 0 0 0 0 0 0 0 -0 -0 -0 -0 0 0 0 0 0 0 0 0 0 0
0 0 0 0 0 0 0 0 0 0 0 0 0 0 0 0 0 0 0 -0 0 0 -0 0 0 0 -0 -0 -0 0 0 -0 -0 0 0 0 0 0 0 0 0 0 0
Wind_Speed_500mb
34 34 35 38 41 41 47 44 42 42 51 51 47 40 42 38 38 39 40 38 42 45 44 49 45 44 44 45 45 44 40 47 50 56 47 52 39 50 48 45 50 53 52
45 39 35 37 39 43 43 46 45 42 45 49 46 41 32 34 33 39 42 39 42 46 51 49 48 43 44 45 48 49 54 52 55 48 56 65 66 60 59 57 65 67 62
42 41 38 36 36 40 44 46 45 50 50 49 47 43 45 47 44 36 37 46 48 49 46 42 50 48 48 55 54 47 46 57 57 55 50 31 32 40 50 52 57 60 70
9 26 35 37 36 37 41 42 44 40 41 45 51 50 42 36 35 30 35 39 40 36 38 35 37 42 47 57 60 61 60 58 59 55 55 56 62 65 44 60 59 63 64
10 21 20 21 16 8 7 10 21 46 41 39 39 37 39 38 40 40 40 32 35 35 35 34 32 33 40 46 49 56 56 47 46 47 47 47 47 53 65 67 59 39 50
18 18 21 19 22 16 10 3 6 18 17 21 23 30 38 43 43 27 25 17 18 18 16 26 28 30 37 38 37 35 34 33 33 37 42 50 43 43 46 52 41 27 17
27 27 24 20 26 30 21 19 19 16 10 5 1 5 9 16 12 16 17 14 14 14 17 17 25 29 23 20 20 20 24 23 23 18 11 16 15 16 15 13 10 9 12
30 28 26 25 30 34 28 19 20 18 15 11 11 8 6 11 12 11 7 7 2 8 11 12 15 16 16 13 15 16 15 15 14 12 20 26 30 29 31 24 15 18 25
36 33 29 29 31 31 27 24 21 19 19 12 10 10 5 6 9 9 5 3 2 6 11 12 13 14 13 20 23 29 34 35 37 35 32 32 33 32 30 29 27 26 14
38 34 32 32 31 31 35 37 34 33 28 27 24 20 14 13 9 7 6 5 5 9 14 20 29 37 40 39 37 36 32 31 33 32 28 27 27 25 25 24 23 25 21
40 36 35 34 32 29 27 25 27 27 24 19 14 10 9 8 7 8 14 19 21 33 40 37 36 37 40 41 40 41 39 37 31 29 30 28 26 22 20 19 21 18 18
39 34 33 33 29 29 26 31 31 32 31 29 23 29 30 31 32 33 35 33 33 30 32 35 34 34 35 31 34 30 27 25 26 21 18 20 18 21 23 20 22 22 24
37 31 27 27 28 30 30 28 26 28 24 22 28 27 27 23 28 34 35 33 31 29 31 30 35 33 28 26 24 18 15 14 16 12 15 17 17 22 22 13 9 9 19
33 25 23 28 29 26 21 22 21 18 23 33 30 29 27 35 36 35 36 35 33 32 28 25 23 20 22 16 14 16 20 22 32 31 35 31 30 28 21 23 26 15 14
31 24 23 30 26 19 18 22 20 18 20 26 24 24 29 26 27 32 35 35 29 22 19 19 18 16 18 20 20 18 20 23 26 22 32 33 28 34 42 42 42 42 33
24 21 27 27 25 27 23 21 22 24 24 21 25 24 26 31 32 28 26 23 21 19 17 17 18 26 27 20 21 24 25 19 21 28 24 25 19 23 26 31 34 37 42
23 22 20 13 15 18 20 22 21 17 17 19 23 24 24 24 24 27 26 23 17 14 16 20 26 30 33 32 30 31 23 27 29 24 21 32 29 18 25 27 31 32 32
24 29 25 19 20 18 28 27 19 21 16 18 23 25 24 20 16 14 16 19 15 15 20 25 25 25 28 25 22 27 32 31 35 37 41 41 31 18 19 17 9 21 20
24 24 19 25 25 26 19 22 21 13 22 26 26 25 21 20 20 20 17 14 14 21 18 19 24 22 20 18 19 16 13 15 17 24 32 47 36 39 23 27 25 23 27
23 24 23 26 21 21 20 14 14 16 24 29 24 15 13 19 23 13 15 16 16 17 14 20 20 21 22 16 8 12 16 24 6 18 30 43 35 38 45 38 33 28 28
28 27 27 25 21 17 14 15 23 31 30 26 29 24 19 17 16 14 10 16 16 16 12 12 17 24 26 28 32 25 10 7 24 24 24 30 29 30 29 34 33 28 27
32 25 24 23 22 17 16 18 28 36 30 23 23 19 17 10 12 14 14 12 17 16 14 8 4 9 11 20 26 30 22 13 6 16 21 25 25 27 23 21 30 30 23
31 25 25 28 21 20 28 32 36 28 27 25 19 20 15 10 14 8 11 13 5 7 14 19 26 17 13 17 23 25 20 16 13 8 22 19 24 29 17 22 36 27 26
31 33 29 26 26 35 33 19 22 27 16 16 19 9 10 11 7 8 11 18 5 5 10 22 19 15 12 7 13 17 13 16 13 15 19 17 22 30 22 30 28 26 26
33 28 26 22 22 23 20 18 15 16 11 20 15 10 8 10 5 4 2 3 6 9 11 12 9 10 11 23 30 29 19 18 14 11 14 16 12 24 22 25 25 30 28
28 27 27 25 20 16 13 12 10 10 12 17 19 11 9 16 14 2 1 3 8 9 11 14 21 28 30 29 31 22 10 8 6 9 8 14 14 21 25 24 23 28 25
Wind_Direction_500mb
183 184 188 187 190 201 199 218 223 216 212 231 243 245 245 253 265 265 262 245 245 254 261 266 264 259 262 255 248 264 274 269 266 267 270 278 272 276 261 260 262 261 278
171 182 190 195 199 204 218 219 227 232 228 234 246 249 260 274 277 277 278 280 275 267 256 258 265 263 259 268 274 266 265 267 264 273 274 283 280 280 274 267 269 265 286
169 176 190 200 208 214 223 234 240 236 245 248 250 257 259 249 247 252 264 273 279 278 275 269 257 255 259 260 259 276 271 269 273 268 270 271 270 276 273 276 272 283 293
256 182 185 199 209 222 231 242 246 258 258 265 263 252 251 266 280 285 277 276 278 272 273 278 278 278 273 267 265 263 272 276 276 277 276 275 278 283 276 295 284 285 292
89 116 105 80 101 127 133 191 243 248 258 257 262 267 263 271 268 274 271 271 266 264 274 272 275 277 274 274 270 272 278 280 278 282 284 279 284 285 297 287 296 292 301
105 89 85 75 59 56 53 19 301 231 213 229 248 263 260 258 255 255 258 249 279 285 285 259 255 278 294 287 287 282 283 279 278 282 286 282 274 298 305 263 276 298 303
102 95 81 76 81 70 72 63 70 68 69 69 172 258 264 290 297 275 272 250 266 284 283 277 278 294 301 294 288 281 283 293 301 308 322 310 327 299 304 297 321 13 350
113 105 97 85 112 95 101 108 111 115 120 115 122 142 145 123 153 180 140 192 286 320 307 309 310 327 345 337 321 318 335 356 36 51 71 77 71 61 57 59 58 66 57
119 112 106 98 93 95 99 99 107 97 97 97 107 119 139 123 130 155 142 116 84 337 334 337 342 359 11 19 49 74 82 85 80 76 72 68 64 60 59 55 54 49 51
121 113 106 101 92 85 76 71 75 72 79 80 78 75 75 93 102 106 85 48 23 41 55 67 79 77 78 79 77 73 66 63 63 59 53 52 54 59 54 50 34 33 32
124 118 110 102 95 88 89 104 91 93 87 82 77 87 65 61 63 64 79 80 87 92 96 92 85 80 78 75 72 71 69 64 64 63 52 49 44 48 38 34 21 19 8
128 120 110 104 98 93 83 78 77 79 68 76 71 78 82 90 99 95 96 93 93 89 89 86 82 72 69 65 64 62 62 67 63 74 73 67 64 56 46 44 39 30 20
120 119 113 109 97 102 92 82 74 71 79 78 86 87 94 107 109 106 105 105 100 100 93 86 75 68 67 66 60 52 43 30 5 350 28 36 41 71 55 29 13 14 47
123 113 102 100 92 106 83 85 81 72 74 102 99 94 90 94 97 99 97 92 89 95 107 113 117 118 111 92 86 69 43 32 35 41 34 40 53 44 19 16 23 34 40
125 120 107 98 101 94 78 86 95 89 85 96 98 100 109 107 112 109 106 107 104 99 89 85 83 85 101 90 77 83 99 80 59 48 34 32 54 46 41 38 35 34 30
112 116 101 117 110 100 110 107 99 107 113 98 99 102 106 120 118 120 120 113 98 80 66 61 74 87 90 95 91 84 75 93 98 77 61 23 53 53 49 40 27 30 24
120 119 117 129 129 129 121 110 123 107 121 122 133 142 140 130 121 112 106 95 84 75 72 90 96 89 86 80 65 58 79 69 63 54 46 45 48 70 49 41 35 29 26
126 119 122 125 123 118 111 124 125 121 125 137 142 125 125 108 97 103 97 90 82 78 88 95 95 91 86 83 77 50 44 52 58 46 40 30 30 52 52 36 38 29 8
123 126 125 119 119 119 124 128 132 120 114 124 124 117 113 112 110 103 105 96 103 96 98 92 92 91 95 89 76 88 11 6 47 52 38 24 37 47 45 40 55 47 48
136 141 132 123 124 110 123 110 106 124 135 130 119 98 104 108 106 110 102 95 109 110 108 97 85 79 72 68 60 59 86 60 301 53 41 26 40 41 41 43 45 42 27
136 134 134 129 131 143 141 116 132 133 122 103 100 99 96 99 112 108 113 136 143 137 124 118 83 58 59 41 38 30 51 79 52 41 21 16 23 24 35 45 37 22 20
133 132 129 128 132 129 113 124 146 141 129 109 105 98 102 91 76 106 114 121 100 80 76 78 100 76 64 34 27 21 21 29 69 19 3 15 19 13 23 47 25 13 12
133 136 133 127 132 128 138 143 152 150 142 133 121 105 92 78 73 115 136 100 93 288 27 99 103 94 37 27 26 21 14 0 22 9 351 2 19 4 13 23 6 11 15
129 126 122 121 131 145 149 160 161 161 158 148 135 139 110 104 138 140 100 141 139 103 38 59 27 36 20 358 345 344 339 335 341 332 357 18 17 24 37 12 18 17 12
132 131 121 123 132 150 159 168 167 160 169 146 147 142 63 117 136 159 33 318 309 327 324 343 356 345 308 315 328 333 332 342 346 7 10 19 12 21 15 14 6 3 8
138 139 134 134 138 139 159 176 194 193 178 174 164 159 126 140 125 57 66 44 33 22 352 349 340 328 310 307 314 326 349 16 42 52 14 359 5 15 6 10 1 1 7
Wind_Speed_850mb
34 34 35 38 41 41 47 44 42 42 51 51 47 40 42 38 38 39 40 38 42 45 44 49 45 44 44 45 45 44 40 47 50 56 47 52 39 50 48 45 50 53 52
45 39 35 37 39 43 43 46 45 42 45 49 46 41 32 34 33 39 42 39 42 46 51 49 48 43 44 45 48 49 54 52 55 48 56 65 66 60 59 57 65 67 62
42 41 38 36 36 40 44 46 45 50 50 49 47 43 45 47 44 36 37 46 48 49 46 42 50 48 48 55 54 47 46 57 57 55 50 31 32 40 50 52 57 60 70
9 26 35 37 36 37 41 42 44 40 41 45 51 50 42 36 35 30 35 39 40 36 38 35 37 42 47 57 60 61 60 58 59 55 55 56 62 65 44 60 59 63 64
10 21 20 21 16 8 7 10 21 46 41 39 39 37 39 38 40 40 40 32 35 35 35 34 32 33 40 46 49 56 56 47 46 47 47 47 47 53 65 67 59 39 50
18 18 21 19 22 16 10 3 6 18 17 21 23 30 38 43 43 27 25 17 18 18 16 26 28 30 37 38 37 35 34 33 33 37 42 50 43 43 46 52 41 27 17
27 27 24 20 26 30 21 19 19 16 10 5 1 5 9 16 12 16 17 14 14 14 17 17 25 29 23 20 20 20 24 23 23 18 11 16 15 16 15 13 10 9 12
30 28 26 25 30 34 28 19 20 18 15 11 11 8 6 11 12 11 7 7 2 8 11 12 15 16 16 13 15 16 15 15 14 12 20 26 30 29 31 24 15 18 25
36 33 29 29 31 31 27 24 21 19 19 12 10 10 5 6 9 9 5 3 2 6 11 12 13 14 13 20 23 29 34 35 37 35 32 32 33 32 30 29 27 26 14
38 34 32 32 31 31 35 37 34 33 28 27 24 20 14 13 9 7 6 5 5 9 14 20 29 37 40 39 37 36 32 31 33 32 28 27 27 25 25 24 23 25 21
40 36 35 34 32 29 27 25 27 27 24 19 14 10 9 8 7 8 14 19 21 33 40 37 36 37 40 41 40 41 39 37 31 29 30 28 26 22 20 19 21 18 18
39 34 33 33 29 29 26 31 31 32 31 29 23 29 30 31 32 33 35 33 33 30 32 35 34 34 35 31 34 30 27 25 26 21 18 20 18 21 23 20 22 22 24
37 31 27 27 28 30 30 28 26 28 24 22 28 27 27 23 28 34 35 33 31 29 31 30 35 33 28 26 24 18 15 14 16 12 15 17 17 22 22 13 9 9 19
33 25 23 28 29 26 21 22 21 18 23 33 30 29 27 35 36 35 36 35 33 32 28 25 23 20 22 16 14 16 20 22 32 31 35 31 30 28 21 23 26 15 14
31 24 23 30 26 19 18 22 20 18 20 26 24 24 29 26 27 32 35 35 29 22 19 19 18 16 18 20 20 18 20 23 26 22 32 33 28 34 42 42 42 42 33
24 21 27 27 25 27 23 21 22 24 24 21 25 24 26 31 32 28 26 23 21 19 17 17 18 26 27 20 21 24 25 19 21 28 24 25 19 23 26 31 34 37 42
23 22 20 13 15 18 20 22 21 17 17 19 23 24 24 24 24 27 26 23 17 14 16 20 26 30 33 32 30 31 23 27 29 24 21 32 29 18 25 27 31 32 32
24 29 25 19 20 18 28 27 19 21 16 18 23 25 24 20 16 14 16 19 15 15 20 25 25 25 28 25 22 27 32 31 35 37 41 41 31 18 19 17 9 21 20
24 24 19 25 25 26 19 22 21 13 22 26 26 25 21 20 20 20 17 14 14 21 18 19 24 22 20 18 19 16 13 15 17 24 32 47 36 39 23 27 25 23 27
23 24 23 26 21 21 20 14 14 16 24 29 24 15 13 19 23 13 15 16 16 17 14 20 20 21 22 16 8 12 16 24 6 18 30 43 35 38 45 38 33 28 28
28 27 27 25 21 17 14 15 23 31 30 26 29 24 19 17 16 14 10 16 16 16 12 12 17 24 26 28 32 25 10 7 24 24 24 30 29 30 29 34 33 28 27
32 25 24 23 22 17 16 18 28 36 30 23 23 19 17 10 12 14 14 12 17 16 14 8 4 9 11 20 26 30 22 13 6 16 21 25 25 27 23 21 30 30 23
31 25 25 28 21 20 28 32 36 28 27 25 19 20 15 10 14 8 11 13 5 7 14 19 26 17 13 17 23 25 20 16 13 8 22 19 24 29 17 22 36 27 26
31 33 29 26 26 35 33 19 22 27 16 16 19 9 10 11 7 8 11 18 5 5 10 22 19 15 12 7 13 17 13 16 13 15 19 17 22 30 22 30 28 26 26
33 28 26 22 22 23 20 18 15 16 11 20 15 10 8 10 5 4 2 3 6 9 11 12 9 10 11 23 30 29 19 18 14 11 14 16 12 24 22 25 25 30 28
28 27 27 25 20 16 13 12 10 10 12 17 19 11 9 16 14 2 1 3 8 9 11 14 21 28 30 29 31 22 10 8 6 9 8 14 14 21 25 24 23 28 25
Wind_Direction_850mb
183 184 188 187 190 201 199 218 223 216 212 231 243 245 245 253 265 265 262 245 245 254 261 266 264 259 262 255 248 264 274 269 266 267 270 278 272 276 261 260 262 261 278
171 182 190 195 199 204 218 219 227 232 228 234 246 249 260 274 277 277 278 280 275 267 256 258 265 263 259 268 274 266 265 267 264 273 274 283 280 280 274 267 269 265 286
169 176 190 200 208 214 223 234 240 236 245 248 250 257 259 249 247 252 264 273 279 278 275 269 257 255 259 260 259 276 271 269 273 268 270 271 270 276 273 276 272 283 293
256 182 185 199 209 222 231 242 246 258 258 265 263 252 251 266 280 285 277 276 278 272 273 278 278 278 273 267 265 263 272 276 276 277 276 275 278 283 276 295 284 285 292
89 116 105 80 101 127 133 191 243 248 258 257 262 267 263 271 268 274 271 271 266 264 274 272 275 277 274 274 270 272 278 280 278 282 284 279 284 285 297 287 296 292 301
105 89 85 75 59 56 53 19 301 231 213 229 248 263 260 258 255 255 258 249 279 285 285 259 255 278 294 287 287 282 283 279 278 282 286 282 274 298 305 263 276 298 303
102 95 81 76 81 70 72 63 70 68 69 69 172 258 264 290 297 275 272 250 266 284 283 277 278 294 301 294 288 281 283 293 301 308 322 310 327 299 304 297 321 13 350
113 105 97 85 112 95 101 108 111 115 120 115 122 142 145 123 153 180 140 192 286 320 307 309 310 327 345 337 321 318 335 356 36 51 71 77 71 61 57 59 58 66 57
119 112 106 98 93 95 99 99 107 97 97 97 107 119 139 123 130 155 142 116 84 337 334 337 342 359 11 19 49 74 82 85 80 76 72 68 64 60 59 55 54 49 51
121 113 106 101 92 85 76 71 75 72 79 80 78 75 75 93 102 106 85 48 23 41 55 67 79 77 78 79 77 73 66 63 63 59 53 52 54 59 54 50 34 33 32
124 118 110 102 95 88 89 104 91 93 87 82 77 87 65 61 63 64 79 80 87 92 96 92 85 80 78 75 72 71 69 64 64 63 52 49 44 48 38 34 21 19 8
128 120 110 104 98 93 83 78 77 79 68 76 71 78 82 90 99 95 96 93 93 89 89 86 82 72 69 65 64 62 62 67 63 74 73 67 64 56 46 44 39 30 20
120 119 113 109 97 102 92 82 74 71 79 78 86 87 94 107 109 106 105 105 100 100 93 86 75 68 67 66 60 52 43 30 5 350 28 36 41 71 55 29 13 14 47
123 113 102 100 92 106 83 85 81 72 74 102 99 94 90 94 97 99 97 92 89 95 107 113 117 118 111 92 86 69 43 32 35 41 34 40 53 44 19 16 23 34 40
125 120 107 98 101 94 78 86 95 89 85 96 98 100 109 107 112 109 106 107 104 99 89 85 83 85 101 90 77 83 99 80 59 48 34 32 54 46 41 38 35 34 30
112 116 101 117 110 100 110 107 99 107 113 98 99 102 106 120 118 120 120 113 98 80 66 61 74 87 90 95 91 84 75 93 98 77 61 23 53 53 49 40 27 30 24
120 119 117 129 129 129 121 110 123 107 121 122 133 142 140 130 121 112 106 95 84 75 72 90 96 89 86 80 65 58 79 69 63 54 46 45 48 70 49 41 35 29 26
126 119 122 125 123 118 111 124 125 121 125 137 142 125 125 108 97 103 97 90 82 78 88 95 95 91 86 83 77 50 44 52 58 46 40 30 30 52 52 36 38 29 8
123 126 125 119 119 119 124 128 132 120 114 124 124 117 113 112 110 103 105 96 103 96 98 92 92 91 95 89 76 88 11 6 47 52 38 24 37 47 45 40 55 47 48
136 141 132 123 124 110 123 110 106 124 135 130 119 98 104 108 106 110 102 95 109 110 108 97 85 79 72 68 60 59 86 60 301 53 41 26 40 41 41 43 45 42 27
136 134 134 129 131 143 141 116 132 133 122 103 100 99 96 99 112 108 113 136 143 137 124 118 83 58 59 41 38 30 51 79 52 41 21 16 23 24 35 45 37 22 20
133 132 129 128 132 129 113 124 146 141 129 109 105 98 102 91 76 106 114 121 100 80 76 78 100 76 64 34 27 21 21 29 69 19 3 15 19 13 23 47 25 13 12
133 136 133 127 132 128 138 143 152 150 142 133 121 105 92 78 73 115 136 100 93 288 27 99 103 94 37 27 26 21 14 0 22 9 351 2 19 4 13 23 6 11 15
129 126 122 121 131 145 149 160 161 161 158 148 135 139 110 104 138 140 100 141 139 103 38 59 27 36 20 358 345 344 339 335 341 332 357 18 17 24 37 12 18 17 12
132 131 121 123 132 150 159 168 167 160 169 146 147 142 63 117 136 159 33 318 309 327 324 343 356 345 308 315 328 333 332 342 346 7 10 19 12 21 15 14 6 3 8
138 139 134 134 138 139 159 176 194 193 178 174 164 159 126 140 125 57 66 44 33 22 352 349 340 328 310 307 314 326 349 16 42 52 14 359 5 15 6 10 1 1 7